,,,PA_Meas_PMT16A,,PR_Meas_QMR101_102,,RH_Meas_QMH101,,SR_Meas_QMS101,,TA_Meas_QMH101,,GenWind,,GenWind,
date,time,status,PA,status,PR,status,RH,status,SR,status,TA,status,DirAvg,status,SpdAvg,
2011-05-10, 00:00:04,VALID,1001.66,VALID,0,VALID,87.733,VALID,0,VALID,25.3797,VALID,67,VALID,0.373047,
2011-05-10, 00:01:04,VALID,1001.67,VALID,0,VALID,87.9619,VALID,0,VALID,25.3583,VALID,67,VALID,0.267188,
2011-05-10, 00:02:04,VALID,1001.66,VALID,0,VALID,87.939,VALID,0,VALID,25.3193,VALID,67,VALID,0.340234,
2011-05-10, 00:03:04,VALID,1001.65,VALID,0,VALID,88.0382,VALID,0,VALID,25.2997,VALID,67,VALID,0.392969,
2011-05-10, 00:04:04,VALID,1001.67,VALID,0,VALID,88.1297,VALID,0,VALID,25.2997,VALID,67,VALID,0.564453,
2011-05-10, 00:05:04,VALID,1001.65,VALID,0,VALID,88.2366,VALID,0,VALID,25.2997,VALID,67,VALID,0.585547,
2011-05-10, 00:06:04,VALID,1001.63,VALID,0,VALID,88.2823,VALID,0,VALID,25.2802,VALID,62,VALID,0.669531,
2011-05-10, 00:07:04,VALID,1001.62,VALID,0,VALID,88.4578,VALID,0,VALID,25.2802,VALID,62,VALID,0.719531,
2011-05-10, 00:08:04,VALID,1001.63,VALID,0,VALID,88.5417,VALID,0,VALID,25.2802,VALID,62,VALID,0.551172,
2011-05-10, 00:09:04,VALID,1001.6,VALID,0,VALID,88.5875,VALID,0,VALID,25.2607,VALID,61,VALID,0.615625,
2011-05-10, 00:10:04,VALID,1001.59,VALID,0,VALID,88.6638,VALID,0,VALID,25.2607,VALID,61,VALID,0.51875,
2011-05-10, 00:11:04,VALID,1001.58,VALID,0,VALID,88.7325,VALID,0,VALID,25.2607,VALID,61,VALID,0,
2011-05-10, 00:12:04,VALID,1001.58,VALID,0,VALID,88.8164,VALID,0,VALID,25.2412,VALID,61,VALID,0,
2011-05-10, 00:13:04,VALID,1001.52,VALID,0,VALID,88.9003,VALID,0,VALID,25.2217,VALID,61,VALID,0,
2011-05-10, 00:14:04,VALID,1001.49,VALID,0,VALID,88.9232,VALID,0,VALID,25.2021,VALID,61,VALID,0,
2011-05-10, 00:15:04,VALID,1001.47,VALID,0,VALID,88.8927,VALID,0,VALID,25.1826,VALID,61,VALID,0,
2011-05-10, 00:16:04,VALID,1001.45,VALID,0,VALID,88.8317,VALID,0,VALID,25.1826,VALID,61,VALID,0,
2011-05-10, 00:17:04,VALID,1001.46,VALID,0,VALID,88.7935,VALID,0,VALID,25.1826,VALID,61,VALID,0,
2011-05-10, 00:18:04,VALID,1001.48,VALID,0,VALID,88.7706,VALID,0,VALID,25.1826,VALID,61,VALID,0,
2011-05-10, 00:19:04,VALID,1001.46,VALID,0,VALID,88.8164,VALID,0,VALID,25.1631,VALID,61,VALID,0,
2011-05-10, 00:20:04,VALID,1001.44,VALID,0,VALID,88.8011,VALID,0,VALID,25.1241,VALID,61,VALID,0,
2011-05-10, 00:21:04,VALID,1001.45,VALID,0,VALID,88.7935,VALID,0,VALID,25.126,VALID,61,VALID,0,
2011-05-10, 00:22:04,VALID,1001.44,VALID,0,VALID,88.8469,VALID,0,VALID,25.085,VALID,61,VALID,0,
2011-05-10, 00:23:04,VALID,1001.44,VALID,0,VALID,88.824,VALID,0,VALID,25.0655,VALID,61,VALID,0,
2011-05-10, 00:24:04,VALID,1001.4,VALID,0,VALID,88.8469,VALID,0,VALID,25.046,VALID,61,VALID,0,
2011-05-10, 00:25:04,VALID,1001.4,VALID,0,VALID,88.9309,VALID,0,VALID,25.046,VALID,61,VALID,0,
2011-05-10, 00:26:04,VALID,1001.39,VALID,0,VALID,89.0148,VALID,0,VALID,25.0265,VALID,61,VALID,0,
2011-05-10, 00:27:04,VALID,1001.38,VALID,0,VALID,89.0987,VALID,0,VALID,25.0265,VALID,61,VALID,0,
2011-05-10, 00:28:04,VALID,1001.35,VALID,0,VALID,88.9461,VALID,0,VALID,25.0069,VALID,61,VALID,0,
2011-05-10, 00:29:04,VALID,1001.34,VALID,0,VALID,88.6714,VALID,0,VALID,24.9874,VALID,61,VALID,0,
2011-05-10, 00:30:04,VALID,1001.3,VALID,0,VALID,88.4807,VALID,0,VALID,25.0069,VALID,61,VALID,0,
2011-05-10, 00:31:04,VALID,1001.32,VALID,0,VALID,88.4426,VALID,0,VALID,25.0069,VALID,61,VALID,0,
2011-05-10, 00:32:04,VALID,1001.33,VALID,0,VALID,88.4883,VALID,0,VALID,25.0069,VALID,61,VALID,0,
2011-05-10, 00:33:04,VALID,1001.31,VALID,0,VALID,88.6486,VALID,0,VALID,24.9874,VALID,61,VALID,0,
2011-05-10, 00:34:04,VALID,1001.28,VALID,0,VALID,88.8546,VALID,0.112286,VALID,25.0069,VALID,61,VALID,1.04961,
2011-05-10, 00:35:04,VALID,1001.29,VALID,0,VALID,89.0071,VALID,0,VALID,24.9874,VALID,61,VALID,0.940234,
2011-05-10, 00:36:04,VALID,1001.29,VALID,0,VALID,89.0834,VALID,0,VALID,25.0069,VALID,61,VALID,0.698438,
2011-05-10, 00:37:04,VALID,1001.34,VALID,0,VALID,89.1521,VALID,0,VALID,24.9679,VALID,61,VALID,0.0757812,
2011-05-10, 00:38:04,VALID,1001.32,VALID,0,VALID,89.2055,VALID,0,VALID,24.9698,VALID,61,VALID,0,
2011-05-10, 00:39:04,VALID,1001.33,VALID,0,VALID,89.2284,VALID,0,VALID,24.9484,VALID,61,VALID,0,
2011-05-10, 00:40:04,VALID,1001.32,VALID,0,VALID,89.2589,VALID,0,VALID,24.9289,VALID,61,VALID,0,
2011-05-10, 00:41:04,VALID,1001.36,VALID,0,VALID,89.3123,VALID,0,VALID,24.9093,VALID,61,VALID,0,
2011-05-10, 00:42:04,VALID,1001.33,VALID,0,VALID,89.2742,VALID,0,VALID,24.9093,VALID,61,VALID,0,
2011-05-10, 00:43:04,VALID,1001.35,VALID,0,VALID,89.1063,VALID,0,VALID,24.8917,VALID,61,VALID,0,
2011-05-10, 00:44:04,VALID,1001.32,VALID,0,VALID,89.0377,VALID,0,VALID,24.8703,VALID,61,VALID,0,
2011-05-10, 00:45:04,VALID,1001.34,VALID,0,VALID,89.0453,VALID,0,VALID,24.8703,VALID,61,VALID,0,
2011-05-10, 00:46:04,VALID,1001.32,VALID,0,VALID,88.9843,VALID,0,VALID,24.8917,VALID,61,VALID,0,
2011-05-10, 00:47:04,VALID,1001.33,VALID,0,VALID,88.8927,VALID,0,VALID,24.8917,VALID,61,VALID,0,
2011-05-10, 00:48:04,VALID,1001.32,VALID,0,VALID,88.8546,VALID,0,VALID,24.8703,VALID,75,VALID,0,
2011-05-10, 00:49:04,VALID,1001.31,VALID,0,VALID,88.763,VALID,0,VALID,24.8703,VALID,84,VALID,0,
2011-05-10, 00:50:04,VALID,1001.34,VALID,0,VALID,88.8393,VALID,0,VALID,24.8917,VALID,84,VALID,0,
2011-05-10, 00:51:04,VALID,1001.33,VALID,0,VALID,88.9614,VALID,0,VALID,24.8508,VALID,84,VALID,0.959375,
2011-05-10, 00:52:04,VALID,1001.34,VALID,0,VALID,88.7477,VALID,0,VALID,24.8527,VALID,84,VALID,1.27227,
2011-05-10, 00:53:04,VALID,1001.32,VALID,0,VALID,88.4044,VALID,0,VALID,24.8117,VALID,84,VALID,1.12852,
2011-05-10, 00:54:04,VALID,1001.33,VALID,0,VALID,88.4654,VALID,0,VALID,24.8117,VALID,82,VALID,1.05977,
2011-05-10, 00:55:04,VALID,1001.33,VALID,0,VALID,88.496,VALID,0,VALID,24.8136,VALID,80,VALID,0.942969,
2011-05-10, 00:56:04,VALID,1001.33,VALID,0,VALID,88.5646,VALID,0,VALID,24.7532,VALID,81,VALID,0.737891,
2011-05-10, 00:57:04,VALID,1001.33,VALID,0,VALID,88.6943,VALID,0,VALID,24.7746,VALID,81,VALID,0.631641,
2011-05-10, 00:58:04,VALID,1001.31,VALID,0,VALID,88.8622,VALID,0,VALID,24.7142,VALID,81,VALID,0.490625,
2011-05-10, 00:59:04,VALID,1001.31,VALID,0,VALID,89.0148,VALID,0,VALID,24.6946,VALID,81,VALID,0.768359,
2011-05-10, 01:00:04,VALID,1001.28,VALID,0,VALID,89.0148,VALID,0,VALID,24.6751,VALID,80,VALID,0.712891,
2011-05-10, 01:01:04,VALID,1001.25,VALID,0,VALID,88.9614,VALID,0,VALID,24.6361,VALID,80,VALID,0.667969,
2011-05-10, 01:02:04,VALID,1001.22,VALID,0,VALID,88.9614,VALID,0,VALID,24.6166,VALID,75,VALID,0.717969,
2011-05-10, 01:03:04,VALID,1001.23,VALID,0,VALID,88.9614,VALID,0,VALID,24.5989,VALID,75,VALID,0.625,
2011-05-10, 01:04:04,VALID,1001.2,VALID,0,VALID,89.0758,VALID,0,VALID,24.5562,VALID,75,VALID,0.561719,
2011-05-10, 01:05:04,VALID,1001.18,VALID,0,VALID,89.175,VALID,0,VALID,24.558,VALID,75,VALID,0.00195313,
2011-05-10, 01:06:04,VALID,1001.19,VALID,0,VALID,89.1826,VALID,0,VALID,24.5385,VALID,75,VALID,0,
2011-05-10, 01:07:04,VALID,1001.17,VALID,0,VALID,89.2284,VALID,0.112286,VALID,24.519,VALID,75,VALID,0,
2011-05-10, 01:08:04,VALID,1001.2,VALID,0,VALID,89.3047,VALID,0,VALID,24.5209,VALID,75,VALID,0,
2011-05-10, 01:09:04,VALID,1001.19,VALID,0,VALID,89.4573,VALID,0,VALID,24.48,VALID,75,VALID,0,
2011-05-10, 01:10:04,VALID,1001.16,VALID,0,VALID,89.6099,VALID,0,VALID,24.4604,VALID,75,VALID,0,
2011-05-10, 01:11:04,VALID,1001.16,VALID,0,VALID,89.7701,VALID,0,VALID,24.4604,VALID,75,VALID,0,
2011-05-10, 01:12:04,VALID,1001.15,VALID,0,VALID,89.8769,VALID,0,VALID,24.4604,VALID,75,VALID,0,
2011-05-10, 01:13:04,VALID,1001.14,VALID,0,VALID,89.9074,VALID,0,VALID,24.4604,VALID,75,VALID,0,
2011-05-10, 01:14:04,VALID,1001.14,VALID,0,VALID,89.9151,VALID,0,VALID,24.4409,VALID,75,VALID,0,
2011-05-10, 01:15:04,VALID,1001.1,VALID,0,VALID,89.9914,VALID,0,VALID,24.4409,VALID,75,VALID,0,
2011-05-10, 01:16:04,VALID,1001.14,VALID,0,VALID,90.0371,VALID,0,VALID,24.4409,VALID,75,VALID,0,
2011-05-10, 01:17:04,VALID,1001.12,VALID,0,VALID,90.0677,VALID,0,VALID,24.4604,VALID,75,VALID,0,
2011-05-10, 01:18:04,VALID,1001.11,VALID,0,VALID,90.0448,VALID,0,VALID,24.4409,VALID,75,VALID,0,
2011-05-10, 01:19:04,VALID,1001.09,VALID,0,VALID,89.9609,VALID,0,VALID,24.4409,VALID,75,VALID,0,
2011-05-10, 01:20:04,VALID,1001.09,VALID,0,VALID,89.8846,VALID,0,VALID,24.4214,VALID,75,VALID,0,
2011-05-10, 01:21:04,VALID,1001.08,VALID,0,VALID,89.9685,VALID,0,VALID,24.4019,VALID,75,VALID,0,
2011-05-10, 01:22:04,VALID,1001.06,VALID,0,VALID,90.0677,VALID,0,VALID,24.4019,VALID,75,VALID,0,
2011-05-10, 01:23:04,VALID,1001.02,VALID,0,VALID,90.1287,VALID,0,VALID,24.4233,VALID,75,VALID,0,
2011-05-10, 01:24:04,VALID,1001.03,VALID,0,VALID,90.2431,VALID,0,VALID,24.4019,VALID,75,VALID,0,
2011-05-10, 01:25:04,VALID,1001.04,VALID,0,VALID,90.3042,VALID,0,VALID,24.4233,VALID,84,VALID,0,
2011-05-10, 01:26:04,VALID,1001.02,VALID,0,VALID,90.0982,VALID,0,VALID,24.4428,VALID,164,VALID,0.884375,
2011-05-10, 01:27:04,VALID,1001.03,VALID,0,VALID,89.8769,VALID,0,VALID,24.4604,VALID,164,VALID,0.724609,
2011-05-10, 01:28:04,VALID,1001,VALID,0,VALID,89.7701,VALID,0,VALID,24.5385,VALID,164,VALID,0.534766,
2011-05-10, 01:29:04,VALID,1001.02,VALID,0,VALID,89.5946,VALID,0,VALID,24.5971,VALID,164,VALID,0.315625,
2011-05-10, 01:30:04,VALID,1000.99,VALID,0,VALID,89.2818,VALID,0,VALID,24.6361,VALID,164,VALID,0,
2011-05-10, 01:31:04,VALID,1001.01,VALID,0,VALID,89.1368,VALID,0,VALID,24.6965,VALID,164,VALID,0,
2011-05-10, 01:32:04,VALID,1000.97,VALID,0,VALID,88.9461,VALID,0,VALID,24.6946,VALID,164,VALID,0.0078125,
2011-05-10, 01:33:04,VALID,1000.95,VALID,0,VALID,88.763,VALID,0,VALID,24.7356,VALID,133,VALID,0.500391,
2011-05-10, 01:34:04,VALID,1000.95,VALID,0,VALID,88.8011,VALID,0,VALID,24.7551,VALID,133,VALID,0.699609,
2011-05-10, 01:35:04,VALID,1000.93,VALID,0,VALID,88.7706,VALID,0,VALID,24.7532,VALID,133,VALID,0.48125,
2011-05-10, 01:36:04,VALID,1000.92,VALID,0,VALID,88.8317,VALID,0,VALID,24.7922,VALID,133,VALID,0.387891,
2011-05-10, 01:37:04,VALID,1000.91,VALID,0,VALID,88.7096,VALID,0,VALID,24.7922,VALID,133,VALID,0.435547,
2011-05-10, 01:38:04,VALID,1000.92,VALID,0,VALID,88.412,VALID,0,VALID,24.7922,VALID,133,VALID,0.367969,
2011-05-10, 01:39:04,VALID,1000.92,VALID,0,VALID,88.0687,VALID,0,VALID,24.7746,VALID,133,VALID,0,
2011-05-10, 01:40:04,VALID,1000.94,VALID,0,VALID,87.8398,VALID,0,VALID,24.7532,VALID,133,VALID,0,
2011-05-10, 01:41:04,VALID,1000.92,VALID,0,VALID,87.7711,VALID,0,VALID,24.7142,VALID,133,VALID,0,
2011-05-10, 01:42:04,VALID,1000.93,VALID,0,VALID,87.878,VALID,0,VALID,24.6751,VALID,99,VALID,0,
2011-05-10, 01:43:04,VALID,1000.93,VALID,0,VALID,88.084,VALID,0,VALID,24.6361,VALID,61,VALID,0,
2011-05-10, 01:44:04,VALID,1000.93,VALID,0,VALID,88.3968,VALID,0,VALID,24.5775,VALID,61,VALID,0,
2011-05-10, 01:45:04,VALID,1000.93,VALID,0,VALID,88.6867,VALID,0,VALID,24.5385,VALID,61,VALID,0,
2011-05-10, 01:46:04,VALID,1000.94,VALID,0,VALID,88.7859,VALID,0,VALID,24.48,VALID,61,VALID,0,
2011-05-10, 01:47:04,VALID,1000.92,VALID,0,VALID,88.969,VALID,0,VALID,24.4214,VALID,61,VALID,0,
2011-05-10, 01:48:04,VALID,1000.88,VALID,0,VALID,89.2971,VALID,0,VALID,24.3824,VALID,61,VALID,0,
2011-05-10, 01:49:04,VALID,1000.89,VALID,0,VALID,89.5412,VALID,0,VALID,24.3824,VALID,61,VALID,0,
2011-05-10, 01:50:04,VALID,1000.86,VALID,0,VALID,89.6175,VALID,0,VALID,24.3824,VALID,61,VALID,0,
2011-05-10, 01:51:04,VALID,1000.87,VALID,0,VALID,89.6328,VALID,0,VALID,24.3433,VALID,61,VALID,0,
2011-05-10, 01:52:04,VALID,1000.88,VALID,0,VALID,89.5412,VALID,0,VALID,24.3062,VALID,61,VALID,0,
2011-05-10, 01:53:04,VALID,1000.87,VALID,0,VALID,89.6709,VALID,0,VALID,24.3062,VALID,61,VALID,0,
2011-05-10, 01:54:04,VALID,1000.88,VALID,0,VALID,89.7777,VALID,0,VALID,24.2653,VALID,347,VALID,0.540234,
2011-05-10, 01:55:04,VALID,1000.9,VALID,0,VALID,89.9532,VALID,0,VALID,24.2653,VALID,347,VALID,0.411328,
2011-05-10, 01:56:04,VALID,1000.9,VALID,0,VALID,89.9761,VALID,0,VALID,24.3062,VALID,347,VALID,0,
2011-05-10, 01:57:04,VALID,1000.88,VALID,0,VALID,89.9074,VALID,0,VALID,24.2653,VALID,347,VALID,0,
2011-05-10, 01:58:04,VALID,1000.86,VALID,0,VALID,89.9151,VALID,0,VALID,24.3062,VALID,347,VALID,0,
2011-05-10, 01:59:04,VALID,1000.81,VALID,0,VALID,89.8998,VALID,0,VALID,24.2653,VALID,347,VALID,0,
2011-05-10, 02:00:04,VALID,1000.83,VALID,0,VALID,89.9074,VALID,0,VALID,24.2848,VALID,347,VALID,0,
2011-05-10, 02:01:04,VALID,1000.82,VALID,0,VALID,89.9609,VALID,0,VALID,24.2848,VALID,347,VALID,0.580859,
2011-05-10, 02:02:04,VALID,1000.82,VALID,0,VALID,90.0371,VALID,0,VALID,24.2866,VALID,347,VALID,0.45,
2011-05-10, 02:03:04,VALID,1000.81,VALID,0,VALID,89.9914,VALID,0,VALID,24.2866,VALID,2,VALID,0.755469,
2011-05-10, 02:04:04,VALID,1000.82,VALID,0,VALID,89.7091,VALID,0,VALID,24.2458,VALID,55,VALID,0.769922,
2011-05-10, 02:05:04,VALID,1000.81,VALID,0,VALID,89.4954,VALID,0,VALID,24.2866,VALID,66,VALID,0.905469,
2011-05-10, 02:06:04,VALID,1000.79,VALID,0,VALID,89.3352,VALID,0,VALID,24.2866,VALID,73,VALID,0.730859,
2011-05-10, 02:07:04,VALID,1000.8,VALID,0,VALID,89.2666,VALID,0,VALID,24.2653,VALID,73,VALID,0.915234,
2011-05-10, 02:08:04,VALID,1000.83,VALID,0,VALID,89.2971,VALID,0,VALID,24.2866,VALID,76,VALID,0.96875,
2011-05-10, 02:09:04,VALID,1000.85,VALID,0,VALID,89.3276,VALID,0,VALID,24.2671,VALID,76,VALID,0.997656,
2011-05-10, 02:10:04,VALID,1000.84,VALID,0,VALID,89.3734,VALID,0,VALID,24.2476,VALID,76,VALID,0.860156,
2011-05-10, 02:11:04,VALID,1000.83,VALID,0,VALID,89.3581,VALID,0,VALID,24.2263,VALID,76,VALID,0.798437,
2011-05-10, 02:12:04,VALID,1000.83,VALID,0,VALID,89.4268,VALID,0,VALID,24.1872,VALID,76,VALID,0.796094,
2011-05-10, 02:13:04,VALID,1000.86,VALID,0,VALID,89.526,VALID,0,VALID,24.1891,VALID,76,VALID,0.565234,
2011-05-10, 02:14:04,VALID,1000.82,VALID,0,VALID,89.6251,VALID,0,VALID,24.15,VALID,76,VALID,0.386328,
2011-05-10, 02:15:04,VALID,1000.84,VALID,0,VALID,89.7396,VALID,0,VALID,24.1305,VALID,76,VALID,0.402734,
2011-05-10, 02:16:04,VALID,1000.82,VALID,0,VALID,89.8311,VALID,0,VALID,24.111,VALID,76,VALID,0.148828,
2011-05-10, 02:17:04,VALID,1000.8,VALID,0,VALID,89.9456,VALID,0,VALID,24.0915,VALID,76,VALID,0,
2011-05-10, 02:18:04,VALID,1000.8,VALID,0,VALID,90.0295,VALID,0,VALID,24.0506,VALID,76,VALID,0,
2011-05-10, 02:19:04,VALID,1000.79,VALID,0,VALID,90.1745,VALID,0,VALID,24.0329,VALID,76,VALID,0,
2011-05-10, 02:20:04,VALID,1000.82,VALID,0,VALID,90.266,VALID,0,VALID,23.9921,VALID,76,VALID,0,
2011-05-10, 02:21:04,VALID,1000.85,VALID,0,VALID,90.3271,VALID,0,VALID,23.9939,VALID,76,VALID,0,
2011-05-10, 02:22:04,VALID,1000.83,VALID,0,VALID,90.3805,VALID,0,VALID,23.9939,VALID,56,VALID,0,
2011-05-10, 02:23:04,VALID,1000.86,VALID,0,VALID,90.3194,VALID,0,VALID,23.9336,VALID,56,VALID,0,
2011-05-10, 02:24:04,VALID,1000.85,VALID,0,VALID,90.3881,VALID,0,VALID,23.9531,VALID,56,VALID,0,
2011-05-10, 02:25:04,VALID,1000.86,VALID,0,VALID,90.556,VALID,0,VALID,23.9531,VALID,56,VALID,0,
2011-05-10, 02:26:04,VALID,1000.85,VALID,0,VALID,90.7009,VALID,0,VALID,23.9549,VALID,56,VALID,0,
2011-05-10, 02:27:04,VALID,1000.83,VALID,0,VALID,90.7849,VALID,0,VALID,23.9336,VALID,56,VALID,0,
2011-05-10, 02:28:04,VALID,1000.83,VALID,0,VALID,90.8611,VALID,0,VALID,23.9354,VALID,56,VALID,0,
2011-05-10, 02:29:04,VALID,1000.81,VALID,0,VALID,90.8764,VALID,0,VALID,23.8963,VALID,56,VALID,0,
2011-05-10, 02:30:04,VALID,1000.84,VALID,0,VALID,90.9222,VALID,0,VALID,23.8963,VALID,56,VALID,0,
2011-05-10, 02:31:04,VALID,1000.83,VALID,0,VALID,90.9909,VALID,0,VALID,23.875,VALID,70,VALID,0,
2011-05-10, 02:32:04,VALID,1000.85,VALID,0,VALID,91.1053,VALID,0,VALID,23.8768,VALID,82,VALID,0.917969,
2011-05-10, 02:33:04,VALID,1000.88,VALID,0,VALID,91.1892,VALID,0,VALID,23.9336,VALID,82,VALID,0.823047,
2011-05-10, 02:34:04,VALID,1000.86,VALID,0,VALID,91.1129,VALID,0,VALID,24.0329,VALID,82,VALID,0.843359,
2011-05-10, 02:35:04,VALID,1000.88,VALID,0,VALID,90.8917,VALID,0,VALID,24.0506,VALID,82,VALID,0.803906,
2011-05-10, 02:36:04,VALID,1000.9,VALID,0,VALID,90.5483,VALID,0,VALID,24.072,VALID,82,VALID,0.603516,
2011-05-10, 02:37:04,VALID,1000.89,VALID,0,VALID,90.3576,VALID,0,VALID,24.0506,VALID,82,VALID,0.483984,
2011-05-10, 02:38:04,VALID,1000.91,VALID,0,VALID,90.2279,VALID,0,VALID,24.0701,VALID,73,VALID,0.563281,
2011-05-10, 02:39:04,VALID,1000.92,VALID,0,VALID,90.1592,VALID,0,VALID,24.0525,VALID,73,VALID,0.482031,
2011-05-10, 02:40:04,VALID,1000.9,VALID,0,VALID,90.1363,VALID,0,VALID,24.0329,VALID,58,VALID,0.69375,
2011-05-10, 02:41:04,VALID,1000.93,VALID,0,VALID,90.2508,VALID,0,VALID,24.0116,VALID,21,VALID,1.05703,
2011-05-10, 02:42:04,VALID,1000.93,VALID,0,VALID,90.2584,VALID,0,VALID,23.9921,VALID,20,VALID,0.708203,
2011-05-10, 02:43:04,VALID,1000.94,VALID,0,VALID,90.3042,VALID,0,VALID,23.9726,VALID,20,VALID,0.623828,
2011-05-10, 02:44:04,VALID,1000.93,VALID,0,VALID,90.472,VALID,0,VALID,23.9567,VALID,20,VALID,0.336328,
2011-05-10, 02:45:04,VALID,1000.94,VALID,0,VALID,90.617,VALID,0,VALID,23.9159,VALID,20,VALID,0.298828,
2011-05-10, 02:46:04,VALID,1000.91,VALID,0,VALID,90.823,VALID,0,VALID,23.8963,VALID,20,VALID,0.176563,
2011-05-10, 02:47:04,VALID,1000.91,VALID,0,VALID,90.9374,VALID,0,VALID,23.8963,VALID,20,VALID,0,
2011-05-10, 02:48:04,VALID,1000.91,VALID,0,VALID,90.9756,VALID,0,VALID,23.9177,VALID,20,VALID,0,
2011-05-10, 02:49:04,VALID,1000.91,VALID,0,VALID,90.9298,VALID,0,VALID,23.8786,VALID,20,VALID,0,
2011-05-10, 02:50:04,VALID,1000.9,VALID,0,VALID,90.8993,VALID,0,VALID,23.8591,VALID,20,VALID,0,
2011-05-10, 02:51:04,VALID,1000.91,VALID,0,VALID,90.9298,VALID,0,VALID,23.8183,VALID,20,VALID,0,
2011-05-10, 02:52:04,VALID,1000.91,VALID,0,VALID,90.9909,VALID,0,VALID,23.8396,VALID,20,VALID,0,
2011-05-10, 02:53:04,VALID,1000.92,VALID,0,VALID,91.0671,VALID,0,VALID,23.8201,VALID,20,VALID,0,
2011-05-10, 02:54:04,VALID,1000.92,VALID,0,VALID,91.1129,VALID,0,VALID,23.7793,VALID,20,VALID,0,
2011-05-10, 02:55:04,VALID,1000.94,VALID,0,VALID,91.2197,VALID,0,VALID,23.7597,VALID,20,VALID,0,
2011-05-10, 02:56:04,VALID,1000.94,VALID,0,VALID,91.2731,VALID,0,VALID,23.7402,VALID,20,VALID,0.769141,
2011-05-10, 02:57:04,VALID,1000.98,VALID,0,VALID,91.2426,VALID,0,VALID,23.742,VALID,20,VALID,0.70625,
2011-05-10, 02:58:04,VALID,1000.97,VALID,0,VALID,91.174,VALID,0,VALID,23.703,VALID,20,VALID,0.682422,
2011-05-10, 02:59:04,VALID,1000.97,VALID,0,VALID,91.1434,VALID,0,VALID,23.6622,VALID,20,VALID,0.599219,
2011-05-10, 03:00:04,VALID,1001.01,VALID,0,VALID,91.1968,VALID,0,VALID,23.6622,VALID,20,VALID,0.364844,
2011-05-10, 03:01:04,VALID,1000.99,VALID,0,VALID,91.2655,VALID,0,VALID,23.6427,VALID,20,VALID,0,
2011-05-10, 03:02:04,VALID,1001,VALID,0,VALID,91.3647,VALID,0,VALID,23.6427,VALID,20,VALID,0,
2011-05-10, 03:03:04,VALID,1001,VALID,0,VALID,91.502,VALID,0,VALID,23.6427,VALID,20,VALID,0,
2011-05-10, 03:04:04,VALID,1001.03,VALID,0,VALID,91.6088,VALID,0,VALID,23.6427,VALID,20,VALID,0,
2011-05-10, 03:05:04,VALID,1001.03,VALID,0,VALID,91.647,VALID,0,VALID,23.6214,VALID,20,VALID,0,
2011-05-10, 03:06:04,VALID,1001.01,VALID,0,VALID,91.7233,VALID,0,VALID,23.6604,VALID,20,VALID,0,
2011-05-10, 03:07:04,VALID,1001.02,VALID,0,VALID,91.8225,VALID,0,VALID,23.6799,VALID,20,VALID,0,
2011-05-10, 03:08:04,VALID,1001.05,VALID,0,VALID,91.8988,VALID,0,VALID,23.7012,VALID,20,VALID,0,
2011-05-10, 03:09:04,VALID,1001.07,VALID,0,VALID,91.9217,VALID,0,VALID,23.6994,VALID,20,VALID,0,
2011-05-10, 03:10:04,VALID,1001.08,VALID,0,VALID,91.9369,VALID,0,VALID,23.6799,VALID,20,VALID,0,
2011-05-10, 03:11:04,VALID,1001.1,VALID,0,VALID,91.9598,VALID,0,VALID,23.7207,VALID,20,VALID,0,
2011-05-10, 03:12:04,VALID,1001.07,VALID,0,VALID,91.9827,VALID,0,VALID,23.7207,VALID,20,VALID,0,
2011-05-10, 03:13:04,VALID,1001.1,VALID,0,VALID,92.0285,VALID,0,VALID,23.7189,VALID,20,VALID,0,
2011-05-10, 03:14:04,VALID,1001.07,VALID,0,VALID,92.0666,VALID,0,VALID,23.7402,VALID,20,VALID,0,
2011-05-10, 03:15:04,VALID,1001.06,VALID,0,VALID,92.12,VALID,0,VALID,23.7189,VALID,20,VALID,0,
2011-05-10, 03:16:04,VALID,1001.03,VALID,0,VALID,92.1506,VALID,0,VALID,23.7402,VALID,20,VALID,0,
2011-05-10, 03:17:04,VALID,1000.99,VALID,0,VALID,92.1582,VALID,0,VALID,23.7402,VALID,20,VALID,0,
2011-05-10, 03:18:04,VALID,1001.02,VALID,0,VALID,92.1582,VALID,0,VALID,23.7402,VALID,20,VALID,0,
2011-05-10, 03:19:04,VALID,1001,VALID,0,VALID,92.1506,VALID,0,VALID,23.7207,VALID,20,VALID,0,
2011-05-10, 03:20:04,VALID,1001.03,VALID,0,VALID,92.1582,VALID,0,VALID,23.7402,VALID,20,VALID,0,
2011-05-10, 03:21:04,VALID,1001,VALID,0,VALID,92.1582,VALID,0,VALID,23.7207,VALID,20,VALID,0,
2011-05-10, 03:22:04,VALID,1001.02,VALID,0,VALID,92.12,VALID,0,VALID,23.7207,VALID,20,VALID,0,
2011-05-10, 03:23:04,VALID,1001.01,VALID,0,VALID,92.0209,VALID,0,VALID,23.7207,VALID,20,VALID,0,
2011-05-10, 03:24:04,VALID,1001.04,VALID,0,VALID,91.9903,VALID,0,VALID,23.7207,VALID,20,VALID,0,
2011-05-10, 03:25:04,VALID,1001,VALID,0,VALID,91.9369,VALID,0,VALID,23.7402,VALID,20,VALID,0,
2011-05-10, 03:26:04,VALID,1001,VALID,0,VALID,91.8377,VALID,0,VALID,23.7402,VALID,20,VALID,0,
2011-05-10, 03:27:04,VALID,1001.01,VALID,0,VALID,91.7462,VALID,0,VALID,23.7207,VALID,20,VALID,0,
2011-05-10, 03:28:04,VALID,1001.01,VALID,0,VALID,91.6699,VALID,0,VALID,23.7012,VALID,20,VALID,0,
2011-05-10, 03:29:04,VALID,1001.01,VALID,0,VALID,91.6317,VALID,0,VALID,23.7012,VALID,20,VALID,0,
2011-05-10, 03:30:04,VALID,1001.04,VALID,0,VALID,91.6623,VALID,0,VALID,23.7207,VALID,20,VALID,0,
2011-05-10, 03:31:04,VALID,1001.06,VALID,0,VALID,91.647,VALID,0,VALID,23.7597,VALID,20,VALID,0,
2011-05-10, 03:32:04,VALID,1001.08,VALID,0,VALID,91.5631,VALID,0,VALID,23.7988,VALID,20,VALID,0,
2011-05-10, 03:33:04,VALID,1001.09,VALID,0,VALID,91.4944,VALID,0,VALID,23.8378,VALID,20,VALID,0,
2011-05-10, 03:34:04,VALID,1001.1,VALID,0,VALID,91.4334,VALID,0,VALID,23.8573,VALID,20,VALID,0,
2011-05-10, 03:35:04,VALID,1001.09,VALID,0,VALID,91.3571,VALID,0,VALID,23.8768,VALID,20,VALID,0,
2011-05-10, 03:36:04,VALID,1001.05,VALID,0,VALID,91.2884,VALID,0,VALID,23.8573,VALID,20,VALID,0,
2011-05-10, 03:37:04,VALID,1001.03,VALID,0,VALID,91.2426,VALID,0,VALID,23.8573,VALID,20,VALID,0,
2011-05-10, 03:38:04,VALID,1001.06,VALID,0,VALID,91.1358,VALID,0,VALID,23.8378,VALID,20,VALID,0,
2011-05-10, 03:39:04,VALID,1001.04,VALID,0,VALID,91.0671,VALID,0,VALID,23.8378,VALID,20,VALID,0,
2011-05-10, 03:40:04,VALID,1001.04,VALID,0,VALID,91.1129,VALID,0,VALID,23.8573,VALID,20,VALID,0,
2011-05-10, 03:41:04,VALID,1001.07,VALID,0,VALID,91.1663,VALID,0,VALID,23.8378,VALID,20,VALID,0,
2011-05-10, 03:42:04,VALID,1001.08,VALID,0,VALID,91.1892,VALID,0,VALID,23.8183,VALID,20,VALID,0,
2011-05-10, 03:43:04,VALID,1001.07,VALID,0,VALID,91.2655,VALID,0,VALID,23.7793,VALID,20,VALID,0,
2011-05-10, 03:44:04,VALID,1001.07,VALID,0,VALID,91.2884,VALID,0,VALID,23.7597,VALID,20,VALID,0,
2011-05-10, 03:45:04,VALID,1001.08,VALID,0,VALID,91.3418,VALID,0,VALID,23.7597,VALID,20,VALID,0,
2011-05-10, 03:46:04,VALID,1001.13,VALID,0,VALID,91.3952,VALID,0,VALID,23.6994,VALID,20,VALID,0,
2011-05-10, 03:47:04,VALID,1001.08,VALID,0,VALID,91.4791,VALID,0,VALID,23.7207,VALID,20,VALID,0,
2011-05-10, 03:48:04,VALID,1001.08,VALID,0,VALID,91.5478,VALID,0,VALID,23.7012,VALID,20,VALID,0,
2011-05-10, 03:49:04,VALID,1001.1,VALID,0,VALID,91.5631,VALID,0,VALID,23.7012,VALID,20,VALID,0,
2011-05-10, 03:50:04,VALID,1001.13,VALID,0,VALID,91.5936,VALID,0,VALID,23.7012,VALID,20,VALID,0,
2011-05-10, 03:51:04,VALID,1001.1,VALID,0,VALID,91.5707,VALID,0,VALID,23.7012,VALID,5,VALID,0,
2011-05-10, 03:52:04,VALID,1001.1,VALID,0,VALID,91.5631,VALID,0,VALID,23.7225,VALID,5,VALID,0.655078,
2011-05-10, 03:53:04,VALID,1001.09,VALID,0,VALID,91.6012,VALID,0,VALID,23.6817,VALID,5,VALID,0.673828,
2011-05-10, 03:54:04,VALID,1001.1,VALID,0,VALID,91.6394,VALID,0,VALID,23.6817,VALID,5,VALID,0.678906,
2011-05-10, 03:55:04,VALID,1001.04,VALID,0,VALID,91.7157,VALID,0,VALID,23.6622,VALID,5,VALID,0.609375,
2011-05-10, 03:56:04,VALID,1001.04,VALID,0,VALID,91.8148,VALID,0,VALID,23.6214,VALID,5,VALID,0.66875,